This is the latest recevied weather packets stored in our database for station/object OK1FET-16. If no packets are shown the sender has not sent any weather packets the latest 10 day(s).
| Time | Temp. | Humidity | Pressure | Rain* | Wind** | Luminosity | Snow |
|---|---|---|---|---|---|---|---|
| 1777451890 | 7.22° C | 37% | 1022.7 hPa | - | - | - | - |
| 1777451620 | 6.67° C | 37% | 1022.5 hPa | - | - | - | - |
| 1777451085 | 6.11° C | 38% | 1022.5 hPa | - | - | - | - |
| 1777451085 | 6.11° C | 38% | 1022.5 hPa | - | - | - | - |
| 1777451081 | 6.11° C | 38% | 1022.5 hPa | - | - | - | - |
| 1777450543 | 5.56° C | 38% | 1022.4 hPa | - | - | - | - |
| 1777450273 | 6.11° C | 37% | 1022.5 hPa | - | - | - | - |
| 1777449734 | 6.11° C | 37% | 1022.3 hPa | - | - | - | - |
| 1777449468 | 6.11° C | 37% | 1022.3 hPa | - | - | - | - |
| 1777449468 | 6.11° C | 37% | 1022.3 hPa | - | - | - | - |
| 1777449464 | 6.11° C | 37% | 1022.3 hPa | - | - | - | - |
| 1777449199 | 6.11° C | 38% | 1022.5 hPa | - | - | - | - |
| 1777449199 | 6.11° C | 38% | 1022.5 hPa | - | - | - | - |
| 1777449195 | 6.11° C | 38% | 1022.5 hPa | - | - | - | - |
| 1777448929 | 6.67° C | 37% | 1022.3 hPa | - | - | - | - |
| 1777448929 | 6.67° C | 37% | 1022.3 hPa | - | - | - | - |
| 1777448929 | 6.67° C | 37% | 1022.3 hPa | - | - | - | - |
| 1777448660 | 6.11° C | 39% | 1022.3 hPa | - | - | - | - |
| 1777448659 | 6.11° C | 39% | 1022.3 hPa | - | - | - | - |
| 1777448656 | 6.11° C | 39% | 1022.3 hPa | - | - | - | - |
| 1777448386 | 6.11° C | 39% | 1022.1 hPa | - | - | - | - |
| 1777448120 | 6.11° C | 39% | 1022.3 hPa | - | - | - | - |
| 1777448120 | 6.11° C | 39% | 1022.3 hPa | - | - | - | - |
| 1777448117 | 6.11° C | 39% | 1022.3 hPa | - | - | - | - |
| 1777447847 | 6.11° C | 39% | 1022.2 hPa | - | - | - | - |
* Rain since midnight (hover to see other rain measurements)
** Current wind speed in m/s (hover to see current wind gust speed)